Weather Roundup
Issued by NWS

Home | Current Version | Previous Version | Text Only | Print | Product List | Glossary On
Versions: 1 2 3 4 5 6 7 8 9 10 11 12 13 14 15 16 17 18 19 20 21 22 23 24 25 26 27 28 29 30 31 32 33 34 35 36 37 38 39 40 41 42 43 44 45 46 47 48 49 50
250
NZUS93 KARX 240059
HRRWXR

CURRENT HOURLY OBSERVATIONS ACROSS
MUCH OF THE UPPER MISSISSIPPI VALLEY
NATIONAL WEATHER SERVICE LA CROSSE WI
700 PM CST FRI FEB 23 2018


...SOUTHEAST MINNESOTA...


CITY           SKY/WX    TMP DP  RH WIND       PRES   REMARKS
ROCHESTER      FAIR      17  15  92 W9        30.26R FOG     WCI   6
ROCHESTER/MAYO FAIR      21  19  92 W8        30.28R WCI  12
WINONA         CLOUDY    27  21  80 W5        30.29R WCI  21
AUSTIN         FAIR      19  16  86 W6        30.28S WCI  11
ALBERT LEA     FAIR      19  16  86 CALM      30.28R
DODGE CENTER   FAIR      18  16  93 W7        30.26S WCI   8
PRESTON        FAIR      19  16  88 W6        30.27S WCI  11
OWATONNA       FAIR      12  10  92 W6        30.28S FOG     WCI   3
FARIBAULT      FAIR      19  18  93 CALM      30.29S
$$

...ELSEWHERE IN MINNESOTA...


CITY           SKY/WX    TMP DP  RH WIND       PRES   REMARKS
MINNEAPOLIS    FAIR      25  20  81 SW6       30.28R WCI  18
INTNL FALLS    FAIR      22  10  60 W8        30.13R WCI  12
DULUTH         CLOUDY    29  20  69 W12       30.15R WCI  19
RED WING       FAIR      25  16  68 W6        30.29R WCI  18
REDWOOD FALLS  CLEAR     19  17  92 W5        30.31R WCI  12
MANKATO        CLOUDY    22  19  89 W7        30.31R WCI  13
WORTHINGTON    PTCLDY    16  14  92 W9        30.28S WCI   4
FAIRMONT       CLEAR     16  13  88 N5        30.29F WCI   9
$$

...SOUTHWEST WISCONSIN...


CITY           SKY/WX    TMP DP  RH WIND       PRES   REMARKS
LA CROSSE      CLOUDY    28  21  75 W9        30.29R WCI  19
PRAIRIE DU CHI FAIR      30  23  73 W5        30.28R WCI  26
BOSCOBEL       FAIR      31  23  72 W3        30.28R
LONE ROCK      NOT AVBL
PLATTEVILLE    FAIR      32  28  84 W8        30.25R WCI  25
FORT MC COY    CLOUDY    28  23  80 W6        30.28R WCI  22
CAMP DOUGLAS   CLOUDY    29  24  79 W12       30.24R WCI  20
MAUSTON-NEW LI CLOUDY    31  25  76 NW9       30.23S WCI  23
VIROQUA        FAIR      29  26  90 W6        30.23R WCI  23
WIS DELLS      FAIR      31  24  76 NW5       30.23R WCI  26
$$

...ELSEWHERE IN WISCONSIN...


CITY           SKY/WX    TMP DP  RH WIND       PRES   REMARKS
MILWAUKEE      MOCLDY    38  30  73 W8        30.23R WCI  32
MADISON        MOCLDY    33  26  75 W5        30.24R WCI  29
GREEN BAY      CLOUDY    33  24  69 W12       30.21R WCI  24
EAU CLAIRE     NOT AVBL
BLACK RVR FLS  CLOUDY    28  21  74 W7        30.26S WCI  21
MEDFORD        CLOUDY    26  22  84 W7        30.19R WCI  18
WAUSAU         CLOUDY    28  22  78 W10       30.19R WCI  19
WIS RAPIDS     CLOUDY    30  21  69 NW7       30.24R WCI  23
MARSHFIELD     CLOUDY    27  21  78 W10       30.21R WCI  17
RICE LAKE      FAIR      25  20  82 SW5       30.24R WCI  19
$$

...NORTHEAST IOWA...


CITY           SKY/WX    TMP DP  RH WIND       PRES   REMARKS
WATERLOO       FAIR      26  23  88 NW10      30.29R WCI  16
DUBUQUE        FAIR      29  24  82 NW10      30.24F WCI  20
DECORAH        FAIR      25  23  93 VRB6G12   30.26R WCI  18
MASON CITY     CLEAR     17  14  88 W8        30.29S WCI   7
CHARLES CITY   FAIR      25  25 100 NW6       30.29R WCI  18
OELWEIN        FAIR      27  27 100 NW13      30.28S WCI  16
$$

...ELSEWHERE IN IOWA...


CITY           SKY/WX    TMP DP  RH WIND       PRES   REMARKS
DES MOINES     CLOUDY    27  22  81 N7        30.28S WCI  19
IOWA CITY      FAIR      32  24  72 NW6       30.29S WCI  26
FORT DODGE     CLOUDY    21  18  88 NW7       30.30S WCI  12
MARSHALLTOWN   MOCLDY    26  23  88 N9        30.28S WCI  17
CEDAR RAPIDS   FAIR      29  24  82 N10       30.26S WCI  20
$$

...NORTHERN ILLINOIS...


CITY           SKY/WX    TMP DP  RH WIND       PRES   REMARKS
CHICAGO-OHARE  CLOUDY    38  32  79 W5        30.24R WCI  34
CHICAGO-MIDWAY CLOUDY    39  33  79 W7        30.25S WCI  34
MOLINE         FAIR      35  29  78 NW8       30.27R WCI  29
ROCKFORD       CLOUDY    32  27  81 NW5       30.26S WCI  27
PEORIA         CLOUDY    36  33  89 S6        30.28S WCI  31
$$

NOTE: "FAIR" INDICATES FEW OR NO CLOUDS BELOW 12,000 FEET WITH NO
SIGNIFICANT WEATHER AND/OR OBSTRUCTIONS TO VISIBILITY. WIND
SPEEDS ARE IN MILES-PER-HOUR.




USA.gov is the U.S. government's official web portal to all federal, state and local government web resources and services.